Terminal Aerodrome Forecast
Issued by NWS

Home | Current Version | Previous Version | Graphics & Text | Print | Product List | Glossary On
Versions: 1 2 3 4 5 6 7 8 9 10 11 12 13 14 15 16 17 18 19 20 21 22 23 24 25 26 27 28 29 30 31 32 33 34 35 36 37 38 39 40 41 42 43 44
432
FTUS43 KGRB 280925 AAA
TAFRHI
TAF AMD
KRHI 280925Z 2809/2906 15004KT 6SM BR SCT005 OVC010
      TEMPO 2809/2812 3SM -SHRA BR OVC005
     FM281500 17007KT P6SM VCSH OVC005
     FM281600 17008KT P6SM VCSH OVC008
     FM281700 17008KT P6SM SHRA OVC010
     FM281800 17008KT P6SM SHRA OVC020
     FM282000 17008KT P6SM SHRA BKN035
     FM290300 18004KT P6SM SHRA BKN040 BKN070=

USA.gov is the U.S. government's official web portal to all federal, state and local government web resources and services.